Location: Newark
(49.2191°N, 12.6671°E)
Time: 12:14:36
(UTC+00:00)

Transit 2A - Pass Details

Date: 27 January 2020
Orbit: 599 x 959 km, 66.7° (Epoch: 28 February)

Event Time Altitude Azimuth Distance (km) Brightness Sun altitude
Rises 18:25:23 0° 201° (SSW) 2,885 9.3 -24.1°
Reaches altitude 10° 18:27:42 10° 196° (SSW) 1,959 8.3 -24.5°
Enters shadow 18:29:49 27° 184° (S) 1,175 7.0 -24.8°
